Tracking 29892 objects as of 21-Nov-2024
HD Live streaming from Space Station
objects crossing your sky now

NUSAT-24 (KALPANA CHAWIA

Track NUSAT-24 (KALPANA CHAWIA now!
10-day predictions


NORAD ID: 52178
Int'l Code: 2022-033X
Perigee: 353.4 km
Apogee: 354.9 km
Inclination: 97.3 °
Period: 91.5 minutes
Semi major axis: 6725 km
RCS: Unknown
Launch date: April 1, 2022
Source: United States (US)
Launch site: AIR FORCE EASTERN TEST RANGE (AFETR)
Your satellite tracking list
Your tracking list is empty




NASA's NSSDC Master Catalog

Two Line Element Set (TLE):
1 52178U 22033X   24326.15560215  .00199812  00000-0  13685-2 0  9990
2 52178  97.2606  48.7065 0001110  34.3369 325.7967 15.74162854147796
Source of the keplerian elements: AFSPC